Regional Weather Roundup
Issued by NWS

Home | Current Version | Previous Version | Text Only | Print | Product List | Glossary On
Versions: 1 2 3 4 5 6 7 8 9 10 11 12 13 14 15 16 17 18 19 20 21 22 23 24 25 26 27 28 29 30 31 32 33 34 35 36 37 38 39 40 41 42 43 44 45 46 47 48 49 50
000
ASUS42 KTBW 180010
RWRFL
FLORIDA REGIONAL WEATHER ROUNDUP
NATIONAL WEATHER SERVICE TAMPA BAY RUSKIN FL
700 PM EST WED DEC 17 2014

NOTE: "FAIR" INDICATES FEW OR NO CLOUDS BELOW 12,000 FEET WITH NO
SIGNIFICANT WEATHER AND/OR OBSTRUCTIONS TO VISIBILITY.


FLZ001>010-012>015-112-114-115-180100-
PANHANDLE FLORIDA

CITY           SKY/WX    TMP DP  RH WIND       PRES   REMARKS
PENSACOLA      PTCLDY    50  41  71 CALM      30.19R
PENSACOLA NAS  MOCLDY    48  42  80 CALM      30.19R
MILTON NAS     PTCLDY    47  41  80 NW6       30.20R WCI  44
CRESTVIEW      PTCLDY    45  41  86 NW3       30.20R FOG
DUKE FIELD     PTCLDY    47  41  78 NW2       30.18S
VALPARAISO     MOCLDY    51  42  70 N6        30.18S
MARY ESTHER    PTCLDY    52  37  58 N1        30.18R
TRI COUNTY     FAIR      48  45  89 CALM      30.20R
PANAMA CITY    FAIR      51  44  77 W3        30.17R
TYNDALL AFB    MOCLDY    50  44  82 NW6       30.19R
APALACHICOLA   MOCLDY    52  44  74 NW7       30.18R

STATION/POSITION SKY/WX   TEMP    WIND        PRES    WAVE   SWELL
                          AIR SEA DIR/SP/G            HT/PER HT/PER
                          (F)     (DEG/KT/KT) (MB)    (FT/S) (FT/S)
30.1N   87.6W              58 65  300/  6/ 10 1021.9R   1
29.2N   88.2W              60 74  360/  8/ 10 1021.9R   1/ 5   2/ 5
28.7N   86.0W              62 76  350/  8/ 10 1021.6R   2/ 5   2/ 5
PANAMA CITY BEAC           55 62  310/  8/ 11 1021.7S
CAPE SAN BLAS    NOT AVBL
TOWER C                    57     300/ 15/ 16 1021.9R
28.5N   84.5W              63 71  320/  6/ 10 1021.3R   2/ 6   2/ 6

$$
FLZ011-016>038-118-127-128-134-139-239-180100-
NORTH FLORIDA

CITY           SKY/WX    TMP DP  RH WIND       PRES   REMARKS
MARIANNA       PTCLDY    50  46  86 CALM      30.17R
TALLAHASSEE    CLOUDY    57  43  59 N3        30.16R
PERRY          CLOUDY    51  45  81 CALM      30.17R
CROSS CITY       N/A     49  41  74 CALM      30.14S
LAKE CITY      FAIR      50  45  81 CALM      30.13R
GAINESVILLE    MOCLDY    54  46  74 CALM      30.13F
MAYPORT NAS    MOCLDY    53  47  79 CALM      30.13R
JACKSONVILLE   MOCLDY    50  46  86 CALM      30.12S
JAX NAS        MOCLDY    63  43  48 NW3       30.12S
JAX CRAIG      PTCLDY    52  45  77 E3        30.12R
JAX CECIL      CLEAR     46  45  93 CALM      30.12S
FERNANDINA BEA FAIR      55  50  82 CALM      30.11S
ST AUGUSTINE   PTCLDY    54  50  86 CALM      30.14R

STATION/POSITION SKY/WX   TEMP    WIND        PRES    WAVE   SWELL
                          AIR SEA DIR/SP/G            HT/PER HT/PER
                          (F)     (DEG/KT/KT) (MB)    (FT/S) (FT/S)
SHELL POINT                56     230/  8/ 10   N/A
KEATON BEACH               57     290/ 10/ 11 1021.4R
CEDAR KEY                  57     310/  7/ 10 1021.3R
FERNANDINA                 57 59  240/  3/  4 1019.4F
30.7N   81.3W                 61                N/A     1/11
MAYPORT                    56 62     CALM       N/A
31.4N   80.9W              57 58  200/  8/  8 1019.7R   1/11   2/11
ST AUGUSTINE               59      CALM  /  1 1020.9R

$$
FLZ040-043>046-052-053-057-058-063-144-180100-
INTERIOR CENTRAL FLORIDA

CITY           SKY/WX    TMP DP  RH WIND       PRES   REMARKS
OCALA          CLEAR     55  41  58 CALM      30.13F
THE VILLAGES     N/A     59  43  55 SW3       30.04R
LEESBURG       PTCLDY    60  46  59 NW7       30.15R
SANFORD        MOCLDY    57  48  72 N3        30.13R
ORLANDO EXEC   MOCLDY    67  47  48 N5        30.13R
ORLANDO INTL   MOCLDY    63  48  58 NW5       30.13R
KISSIMMEE      CLEAR     63  50  63 CALM      30.13R
WINTER HAVEN   MOCLDY    63  46  54 NW10      30.15R
LAKELAND       CLEAR     63  48  59 NW7       30.14R
BARTOW         FAIR      64  52  63 W7        30.15R
OKEECHOBEE     MOCLDY    61  59  94 CALM      30.12S

$$
FLZ041-047-054-059-064-141-147-180100-
EAST CENTRAL FLORIDA

CITY           SKY/WX    TMP DP  RH WIND       PRES   REMARKS
ORMOND BEACH   CLEAR     55  50  82 CALM      30.14R
DAYTONA BEACH  PTCLDY    58  52  80 CALM      30.14R
DELAND           N/A    N/A N/A N/A CALM      30.13R
JFK SPACE CTR  CLEAR     55  52  91 CALM      30.13R
TITUSVILLE     PTCLDY    63  55  77 E5        30.12R
CAPE CANAVERAL CLEAR     54  51  90 CALM      30.11S
PATRICK AFB    CLEAR     64  59  85 NE6       30.11S
MELBOURNE      PTCLDY    65  60  84 CALM      30.11S
VERO BEACH     CLEAR     64  59  83 CALM      30.11F
FT PIERCE      PTCLDY    65  60  84 CALM      30.11S
STUART         MOCLDY    64  59  82 CALM      30.13R

STATION/POSITION SKY/WX   TEMP    WIND        PRES    WAVE   SWELL
                          AIR SEA DIR/SP/G            HT/PER HT/PER
                          (F)     (DEG/KT/KT) (MB)    (FT/S) (FT/S)
28.5N   80.2W              68 76  340/  6/  8 1019.8F
28.9N   78.5W              70 76  280/ 10/ 14 1020.0S   3/11   2/11
TRIDENT PIER               58 65   20/  2/  3 1019.1R
28.4N   80.5W                 66                N/A     1/11
27.6N   80.2W                 76                N/A     1/10

$$
FLZ050-056-061-142-242-148-248-149-249-151-251-155-255-
160-260-180100-
WEST CENTRAL FLORIDA

CITY           SKY/WX    TMP DP  RH WIND       PRES   REMARKS
CRYSTAL RIVER  FAIR      54  46  76 CALM      30.14S
INVERNESS      FAIR      52  43  71 CALM      30.15S
BROOKSVILLE    PTCLDY    52  44  74 CALM      30.15S
ZEPHYRHILLS    FAIR      55  43  62 NW3       30.16R
CLEARWATER     PTCLDY    58  52  80 NW7       30.14S
TAMPA INTL     MOCLDY    61  48  62 NW7       30.15R
TAMPA EXEC     PTCLDY    59  46  63 NW3       30.15R
PLANT CITY     PTCLDY    63  46  55 NW6       30.16R
MACDILL AFB    PTCLDY    60  55  84 NW6       30.15R
PETER O KNIGHT PTCLDY    63  52  67 N3        30.15R
ST PETERSBURG  CLEAR     63  51  65 N7        30.13R
SARASOTA       PTCLDY    61  53  75 N6        30.13R
VENICE         FAIR      64  59  82 NW8       30.14R

STATION/POSITION SKY/WX   TEMP    WIND        PRES    WAVE   SWELL
                          AIR SEA DIR/SP/G            HT/PER HT/PER
                          (F)     (DEG/KT/KT) (MB)    (FT/S) (FT/S)
CEDAR KEY                  57     310/  7/ 10 1021.3R
28.5N   84.5W              63 71  320/  6/ 10 1021.3R   2/ 6   2/ 6
27.3N   84.3W                 76                N/A     2/ 6
CLEARWATER BEACH           62 64  330/  7/  8 1020.5S
MIDDLE TAMPA BAY           64     350/  8/  9 1020.8R
VENICE                     65 65  330/  8/  9 1020.2R

$$
FLZ066-069-070-075>078-162-262-165-265-180100-
SOUTHWEST FLORIDA AND KEYS

CITY           SKY/WX    TMP DP  RH WIND       PRES   REMARKS
PUNTA GORDA    MOCLDY    65  61  87 SW3       30.15R
FT MYERS       CLEAR     67  59  75 CALM      30.13R
SOUTHWEST INTL CLEAR     66  53  63 CALM      30.13S
NAPLES         CLEAR     66  60  81 CALM      30.13S
MARCO ISLAND   PTCLDY    63  55  77 S3        30.13S
MARATHON       CLEAR     65  63  93 CALM      30.14R
KEY WEST NAS   CLEAR     66  61  84 CALM      30.14R
KEY WEST INTL  CLEAR     68  62  81 NE3       30.14R

STATION/POSITION SKY/WX   TEMP    WIND        PRES    WAVE   SWELL
                          AIR SEA DIR/SP/G            HT/PER HT/PER
                          (F)     (DEG/KT/KT) (MB)    (FT/S) (FT/S)
VENICE                     65 65  330/  8/  9 1020.2R
NAPLES                     66 73     CALM     1020.7R
26.0N   85.6W              72 76   40/  4/  6 1020.1R   2/ 6   2/ 6
DRY TORTUGAS               70      80/  4/  4 1020.1S
NW FL BAY                  68     310/  3/  4 1020.1R
SAND KEY                   72      40/  6/  8 1020.2R
SOMBRERO KEY               72      40/  2/  3 1021.3R
LONG KEY                   68 68   CALM  /  1 1020.8R
MOLASSES REEF              74 78  100/  3/  3 1020.5R

$$
FLZ067-068-071>074-168-172>174-180100-
SOUTHEAST FLORIDA

CITY           SKY/WX    TMP DP  RH WIND       PRES   REMARKS
W PALM BEACH   PTCLDY    72  59  63 CALM      30.12R
FT LAUDER-EXEC FAIR      72  56  57 SE3       30.13R
FT LAUDERDALE  CLEAR     74  55  51 CALM      30.12R
POMPANO BEACH  CLEAR     70  54  56 CALM      30.13R
PEMBROKE PINES CLEAR     71  55  56 CALM      30.14R
OPA LOCKA      CLEAR     70  56  61 S3        30.14R
MIAMI          CLEAR     71  55  56 S3        30.14R
WEST KENDALL   CLEAR     69  57  65 S3        30.14R
HOMESTEAD      CLEAR     64  58  81 SW5       30.14R

STATION/POSITION SKY/WX   TEMP    WIND        PRES    WAVE   SWELL
                          AIR SEA DIR/SP/G            HT/PER HT/PER
                          (F)     (DEG/KT/KT) (MB)    (FT/S) (FT/S)
PORT EVERGLADES            74     150/  4/  6 1019.8
VIRGINIA KEY               73 72  150/  1/  2 1020.7R
LAKE WORTH                 74 76  100/  3/  4 1019.9R


USA.gov is the U.S. government's official web portal to all federal, state and local government web resources and services.